Regional Weather Roundup
Issued by NWS

Home | Current Version | Previous Version | Text Only | Print | Product List | Glossary On
Versions: 1 2 3 4 5 6 7 8 9 10 11 12 13 14 15 16 17 18 19 20 21 22 23 24 25 26 27
000
ASUS45 KTFX 310610
RWRMT
Montana Regional Weather Roundup
National Weather Service Great Falls MT
1200 AM MDT SAT JUL 31 2021

NOTE: "FAIR" indicates few or no clouds below 12,000 feet with no
significant weather and/or obstructions to visibility.

MTZ001>007-043-310700-
West of the divide

CITY           SKY/WX    TMP DP  RH WIND       PRES   REMARKS
Kalispell      CLEAR     83  49  30 NE3       30.11R
Missoula       CLEAR     75  42  30 NW7       30.11R
Butte          PTCLDY    74  43  32 S8        30.31R
Deer Lodge       N/A     70  48  46 W7        30.28S
Hamilton       CLEAR     66  52  59 CALM      30.13R
Mullan Pass    CLOUDY    73  32  22 CALM      30.33S
$$

MTZ008-052>055-310700-
Southwest Montana

CITY           SKY/WX    TMP DP  RH WIND       PRES   REMARKS
Bozeman        PTCLDY    82  47  29 E15G21    30.22S
Dillon         MOCLDY    65  54  67 SW7       30.26R
Ennis          MOCLDY    72  50  46 SE9       30.32R
Three Forks      N/A     68  48  49 CALM      30.19R
Twin Bridges   FAIR      77  46  33 N15       30.23R
W Yellowstone  MOCLDY    57  57 100 CALM      30.40R
$$

MTZ009-010-012-014-046-048-049-054-310700-
East Slopes and Central Montana

CITY           SKY/WX    TMP DP  RH WIND       PRES   REMARKS
Cut Bank       CLOUDY    77  50  38 NW16      30.26R
Great Falls    CLEAR     77  49  37 E9        30.20R
Helena         CLEAR     75  49  39 NW6       30.19R
Malmstrom AFB  CLEAR     72  49  45 SE8       30.20R
Augusta        MOCLDY    71  47  41 NE7       30.26R
Bowmans Corner FAIR      73  45  36 NE9       30.22S
Choteau          N/A     66  52  59 NE7       30.23R
Raynesford     FAIR      73  47  39 E6        30.24R
Ulm            FAIR      73  46  38 E6        30.19R
White Sulphur    N/A     66  46  48 CALM      30.31R
$$

MTZ011-013-016-021-045-047-050-051-310700-
North Central Montana

CITY           SKY/WX    TMP DP  RH WIND       PRES   REMARKS
Havre          CLEAR     77  42  28 E15       30.19R
Lewistown      CLEAR     71  52  50 E8        30.27R
Denton         FAIR      73  46  38 S6        30.20R
Fort Benton      N/A     81  50  34 N8        30.18R
Grass Range    FAIR      71  47  43 W3        30.25R
N Bar Ranch    FAIR      66  50  55 CALM      30.33R
Roy            FAIR      76  49  39 SE10      30.24R
Stanford         N/A     66  49  55 CALM      30.28S
Winifred         N/A     70  47  44 E9        30.24R
$$

MTZ017>020-022>027-061-062-310700-
Northeast Montana

CITY           SKY/WX    TMP DP  RH WIND       PRES   REMARKS
Glasgow        CLEAR     74  45  35 E10       30.19R
Circle           N/A     64  41  42 NE5       30.19
Glendive       CLEAR     73  45  36 NE9       30.21R
Jordan           N/A     74  40  29 E7        30.21R
Malta          CLEAR     68  46  45 E5        30.18R
Plentywood     CLEAR     63  48  59 MISG      30.21R
Poplar           N/A     70  46  43 CALM      30.19S
Sidney         CLEAR     68  45  43 NW3       30.19R
Wolf Point     CLEAR     69  44  40 NE6       30.20R
$$

MTZ028>42-056>058-310700-
Southcentral and southeast Montana

CITY           SKY/WX    TMP DP  RH WIND       PRES   REMARKS
Baker          CLEAR     71  49  45 NE6       30.22R
Big Timber     CLEAR     73  50  43 N10       30.29S
Billings       MOCLDY    79  47  32 NE6       30.22R
Harlowton      FAIR      67  51  56 N3        30.29S
Livingston     PTCLDY    74  51  44 E13       30.27R
Miles City     PTCLDY    78  49  35 NE12      30.19R
$$

Regional Reports...Dakotas/MN

CITY           SKY/WX    TMP DP  RH WIND       PRES   REMARKS
Williston      CLEAR     68  47  46 W6        30.20S
Minot          CLEAR     69  52  54 NW12      30.13R
Dickinson      CLEAR     71  54  54 N9        30.17S
Beach          MOCLDY    66  48  52 CALM      30.23R
Crosby         MOCLDY    61  50  67 NW8       30.19S
Hettinger      CLEAR     66  60  81 SW3       30.19S HAZE
Tioga            N/A     63  48  59 CALM      30.21R
Watford City   FAIR      64  50  59 CALM      30.19S
Bismarck       CLEAR     72  61  68 W6        30.12R SMOKE
Grand Forks    CLEAR     66  57  72 NW6       30.00R HAZE
Fargo          PTCLDY    69  61  75 SW12      30.02S HAZE
Buffalo SD       N/A     68  58  70 SW7       30.18S
Rapid City     MOCLDY    60  58  92 CALM      30.22S SMOKE
Intl Falls     MOCLDY    61  59  93 VRB3      29.97S
Duluth         CLOUDY    64  59  83 W10       30.01F SMOKE
Minneapolis    CLEAR     66  58  75 W6        30.09R SMOKE
$$

Regional Reports...WY/CO/ID/WA/OR

CITY           SKY/WX    TMP DP  RH WIND       PRES   REMARKS
Buffalo WY     PTCLDY    70  53  54 W5        30.33S
Cody           MOCLDY    68  57  68 CALM      30.32R
Gillette       PTCLDY    67  57  70 CALM      30.27S HAZE
Powell         FAIR      68  50  52 E8        30.29S
Sheridan       PTCLDY    68  61  78 CALM      30.24S
Yellowstone La   N/A     55  50  83 CALM      30.51S
Boise          CLOUDY    88  51  28 SE17      30.03R
Couer d`Alene  CLEAR     75  47  36 E3        30.04R
Idaho Falls    CLOUDY    66  59  78 NE5       30.26R
Salmon         MOCLDY    78  52  40 CALM      30.16R
Spokane        PTCLDY    81  40  23 NW3       30.02S
Seattle        MOCLDY    79  54  41 NE13      29.97R
Portland       CLOUDY    84  58  40 N5        29.92R
$$

Regional Reports...Alberta

CITY           SKY/WX    TMP DP  RH WIND       PRES   REMARKS
Calgary        PTCLDY    70  48  46 SE7       30.27R
Cardston         N/A     68  54  60 SW6         N/A
Crowsnest Pass   N/A     59  52  77 SW1         N/A
Del Bonita       N/A     66  50  55 SE1         N/A
Edmonton       CLEAR     63  55  77 E2        30.24R
Fort McMurray  CLEAR     63  54  72 E5        30.22R
High Level     CLEAR     63  57  82 CALM      30.16R
Lethbridge     MOCLDY    66  48  52 S7        30.21R
Lloydminster   CLEAR     63  54  72 SW5       30.25R
Medicine Hat   MOCLDY    75  48  38 NE7       30.19R
Milk River       N/A     72  55  56 NE9         N/A
Onefour          N/A     73  39  29 E14         N/A
Peace River    PTCLDY    63  46  55 VRB6      30.19S
Pincher Creek  CLEAR     61  55  82 NW7       30.28R
Raymond          N/A     72  48  43 E2          N/A
Fort Smith NWT CLEAR     59  54  82 SE2       30.17R
$$

Regional Reports...Saskatchewan

CITY           SKY/WX    TMP DP  RH WIND       PRES   REMARKS
Assiniboia       N/A     61  46  59 E2          N/A
Coronach         N/A     57  46  67 W5          N/A
Cypress Hills    N/A     70  41  35 E7          N/A
Estevan        CLEAR     59  50  72 N6        30.18R
La Ronge         N/A     61  52  72 CALM        N/A
Moose Jaw        N/A     61  46  59 W5          N/A
Prince Albert  CLEAR     59  48  67 W2        30.23R
Regina         CLEAR     68  46  45 NE8       30.21R
Rockglen         N/A     68  46  45 NE2         N/A
Saskatoon      PTCLDY    66  50  55 E6        30.21R
Swift Current  MOCLDY    68  52  56 SE5       30.25R
Uranium City     N/A     54  50  87 MISG        N/A
Val Marie        N/A     61  43  51 NE8         N/A
$$



USA.gov is the U.S. government's official web portal to all federal, state and local government web resources and services.